カタログに戻る

QIANFAN-25

運用中通信PO
NORAD 61558·PAYLOAD·🇨🇳 China

打ち上げ Oct 15, 2024 から Taiyuan Satellite Launch Center

Loading…

次のパス (今後24時間)

TLE

最新Source: Space-Track

元期: Sep 14, 2026, 22:05 UTC

1 61558U 24185G   26257.92080454  .00000385  00000-0  22608-3 0  9996
2 61558  88.9834  46.9378 0012461 186.4795 173.6228 14.06127651108313

AllMySatでQIANFAN-25をリアルタイム追跡

Download on the App Store